Location: *
(49.9853°N, 3.5569°E)
Time: 13:51:46
(UTC+00:00)

Cosmos 1626 - Pass Details

Date: 22 September 2019
Orbit: 493 x 495 km, 82.5° (Epoch: 15 October)

Event Time Altitude Azimuth Distance (km) Brightness Sun altitude
Rises 20:59:26 0° 342° (NNW) 2,590 6.6 -29.5°
Reaches altitude 10° 21:01:41 10° 332° (NNW) 1,702 5.6 -29.7°
Enters shadow 21:03:33 23° 311° (NW) 1,086 4.4 -30.0°
